AKDT,Max TemperatureF,Mean TemperatureF,Min TemperatureF,Max Dew PointF,MeanDew PointF,Min DewpointF,Max Humidity, Mean Humidity, Min Humidity, Max Sea Level PressureIn, Mean Sea Level PressureIn, Min Sea Level PressureIn, Max VisibilityMiles, Mean VisibilityMiles, Min VisibilityMiles, Max Wind SpeedMPH, Mean Wind SpeedMPH, Max Gust SpeedMPH,PrecipitationIn, CloudCover, Events, WindDirDegrees
2013-10-1,52,41,30,34,28,24,0,0,0,29.80,29.77,29.70,10,10,10,24,12,30,0.00,2,,297
2013-10-2,48,39,29,43,35,27,0,0,0,29.81,29.72,29.58,10,9,6,15,7,17,0.00,7,Rain,30
2013-10-3,49,48,47,46,44,40,0,0,0,29.56,29.27,29.05,10,4,1,35,19,54,1.84,8,Rain,3
2013-10-4,58,48,37,45,43,37,0,0,0,29.81,29.60,29.38,10,10,6,13,8,17,0.05,6,Rain,313
2013-10-5,49,42,34,41,37,34,0,0,0,29.83,29.77,29.70,10,10,6,12,5,16,0.14,5,Rain,222
2013-10-6,54,47,39,42,38,32,0,0,0,29.82,29.78,29.70,10,10,10,8,3,9,0.03,6,Rain,265
2013-10-7,52,45,37,47,40,34,0,0,0,29.86,29.80,29.59,10,10,10,20,6,28,0.04,6,Rain,179
2013-10-8,54,51,47,48,40,26,0,0,0,29.55,29.31,29.22,10,10,3,32,14,45,0.04,7,Rain,217
2013-10-9,54,50,45,36,30,23,0,0,0,29.82,29.71,29.39,10,10,10,36,12,53,0.00,5,,246
2013-10-10,52,46,39,43,41,35,0,0,0,29.78,29.68,29.63,10,10,10,15,6,20,0.00,8,,188
2013-10-11,52,43,34,45,40,32,0,0,0,29.84,29.78,29.69,10,9,6,24,11,30,0.14,6,Rain,182
2013-10-12,49,47,45,47,45,41,0,0,0,29.69,29.57,29.43,10,6,1,30,16,39,0.72,8,Rain,128
2013-10-13,52,45,38,43,40,36,0,0,0,29.67,29.51,29.44,10,10,5,18,5,23,0.04,6,Rain,168
2013-10-14,51,42,33,43,37,32,0,0,0,30.06,29.93,29.69,10,10,10,20,7,28,T,4,Rain,214
2013-10-15,56,53,49,47,45,43,0,0,0,30.17,30.04,29.96,10,10,10,25,13,31,T,7,Rain,172
2013-10-16,50,48,46,48,46,38,0,0,0,30.18,30.08,29.97,10,5,0,24,15,29,0.34,8,Fog-Rain,116
2013-10-17,51,50,48,48,47,46,0,0,0,29.97,29.78,29.61,10,4,1,20,10,25,1.40,8,Rain,94
2013-10-18,50,47,44,46,42,34,0,0,0,29.76,29.64,29.41,10,9,5,30,14,38,0.06,7,Rain,158
2013-10-19,52,48,43,46,39,36,0,0,0,29.71,29.49,29.39,10,10,6,23,8,30,0.07,6,Rain,185
2013-10-20,50,42,34,38,36,32,0,0,0,29.95,29.86,29.73,10,10,10,18,5,22,T,5,Rain,181
2013-10-21,47,38,29,40,34,28,0,0,0,30.10,29.98,29.93,10,10,5,22,4,24,0.23,3,Rain,231
2013-10-22,46,37,27,37,32,25,0,0,0,30.17,30.10,29.97,10,10,9,13,5,15,0.01,4,Rain,280
2013-10-23,48,43,37,41,36,33,0,0,0,29.95,29.81,29.68,10,10,8,22,9,29,0.01,5,Rain,329
2013-10-24,52,46,39,47,41,36,0,0,0,29.68,29.51,29.35,10,7,2,36,15,44,1.42,7,Rain,136
2013-10-25,52,43,33,38,35,30,0,0,0,30.21,29.93,29.70,10,10,10,14,6,15,T,3,,212
2013-10-26,44,36,27,43,37,27,0,0,0,30.35,30.23,30.02,10,8,2,8,9,9,0.00,6,Rain,88
2013-10-27,55,51,46,50,32,6,0,0,0,29.98,29.73,29.42,10,6,0,35,13,49,0.80,8,Rain,76
2013-10-28,53,43,33,50,40,23,0,0,0,29.58,29.43,29.35,10,9,4,25,8,35,0.15,5,Rain,204
2013-10-29,47,40,32,46,38,30,0,0,0,29.60,29.36,28.86,10,6,2,36,14,47,0.96,6,Rain,56
2013-10-30,47,44,41,46,43,38,0,0,0,29.23,28.90,28.64,10,7,2,22,16,29,0.34,8,Rain,279
2013-10-31,48,42,35,38,33,29,0,0,0,29.71,29.47,29.25,10,10,10,15,6,18,0.00,7,,282